Location: Centerville
(32.8776°N, 96.6203°W)
Time: 05:27:08
(UTC+00:00)

GPS 2-04 Rocket1 - Pass Details

Date: 17 June 2021
Orbit: 415 x 539 km, 35.6° (Epoch: 29 July)

Event Time Altitude Azimuth Distance (km) Brightness Sun altitude
Exits shadow 09:56:20 15° 280° (W) 1,404 4.5 -14.9°
Maximum altitude 09:59:23 55° 356° (N) 585 3.1 -14.4°
Drops below altitude 10° 10:03:04 10° 75° (ENE) 1,629 6.3 -13.8°
Sets 10:05:14 0° 80° (E) 2,482 7.3 -13.5°
